Regional Weather Roundup
Issued by NWS

Home | Current Version | Previous Version | Text Only | Print | Product List | Glossary On
Versions: 1 2 3 4 5 6 7 8 9 10 11 12 13 14 15 16 17 18 19 20 21 22 23 24 25 26 27 28 29 30 31 32 33 34 35 36 37 38 39 40 41 42 43 44 45 46 47 48 49 50
000
ASUS44 KFWD 240415
RWRTX
NORTH TEXAS HOURLY WEATHER ROUNDUP
NATIONAL WEATHER SERVICE FORT WORTH TX
1000 PM CST THU FEB 23 2017

NOTE: "FAIR" INDICATES FEW OR NO CLOUDS BELOW 12,000 FEET WITH NO
SIGNIFICANT WEATHER AND/OR OBSTRUCTIONS TO VISIBILITY.

TXZ118-119-240500-
DALLAS/FORT WORTH METROPLEX

CITY           SKY/WX    TMP DP  RH WIND       PRES   REMARKS
DFW AIRPORT    PTCLDY    75  58  55 S18       29.52R
DALLAS LOVE    CLEAR     75  56  51 S17G24    29.54R
FTW MEACHAM    CLEAR     77  54  44 S20G28    29.52R
DAL-EXECUTIVE  CLEAR     74  57  55 S14G26    29.54R
FTW-ALLIANCE   CLEAR     74  54  49 S16       29.51R
FTW-NAS-JRB    CLEAR     76  56  49 S25G31    29.53R
FTW-SPINKS     CLEAR     72  56  58 S13G24    29.56R
ARLINGTON      CLEAR     73  58  59 S17       29.54R
GRAND PRAIRIE  CLEAR     73  56  55 S12G21    29.55R
ADDISON        CLEAR     74  56  52 S17G25    29.55R
MESQUITE       CLEAR     72  53  50 S20G26    29.56R
LANCASTER      CLEAR     71  55  58 S13G24    29.56S
$$

TXZ091>094-102>105-117-120-121-131>134-240500-
NORTH CENTRAL TEXAS

CITY           SKY/WX    TMP DP  RH WIND       PRES   REMARKS
SHRMAN/DENISON CLEAR     72  54  54 S17       29.52R
GAINESVILLE    CLEAR     68  51  55 SW5       29.54R
BOWIE          CLEAR     70  50  48 S8        29.53R
BRIDGEPORT     CLEAR     75  47  36 S15G21    29.54R
DECATUR        CLEAR     74  49  41 S13       29.54R
DENTON         CLEAR     74  56  53 S18G28    29.51R
MCKINNEY       CLEAR     73  56  54 S21G30    29.52R
BONHAM         CLEAR     72  52  49 S20G32    29.52S
GREENVILLE     CLEAR     72  48  43 S17G25    29.56R
ROCKWALL       CLEAR     73  53  51 S21G28    29.55R
TERRELL        LGT RAIN  73  52  47 S18G26    29.57R
WAXAHACHIE     CLEAR     70  57  63 S13G23    29.57R
CLEBURNE       CLEAR     72  57  60 S15       29.57R
GRANBURY       CLEAR     73  53  48 S10       29.55R
$$

TXZ083>090-098>101-113>116-127>130-139>142-154-155-240500-
WESTERN NORTH TEXAS

CITY           SKY/WX    TMP DP  RH WIND       PRES   REMARKS
WICHITA FALLS  MOCLDY    71  34  25 W16       29.47R
WF-KICKAPOO    CLEAR     76  30  18 W10G18    29.50R
VERNON         CLEAR     73  19  12 W13       29.51R
ABILENE        CLEAR     69  24  18 W12       29.59R
ABILENE-DYESS  CLEAR     72  26  18 W12       29.58R
GRAHAM         CLEAR     70  39  32 SW6       29.53R
BRECKENRIDGE   CLEAR     73  32  22 SW9       29.56R
CISCO          MOCLDY    70  34  26 W9        29.59R
RANGER         CLEAR     70  36  28 SW5       29.59R
MINERAL WELLS  CLEAR     72  41  32 S8        29.54R
STEPHENVILLE   CLEAR     67  47  47 CALM      29.60R
COMANCHE       CLEAR     71  44  37 SW6       29.59R
BROWNWOOD      CLOUDY    61  43  51 CALM      29.61R
COLEMAN        CLEAR     70  32  24 W6        29.62R
$$

TXZ143>147-156>162-174-175-240500-
CENTRAL TEXAS

CITY           SKY/WX    TMP DP  RH WIND       PRES   REMARKS
WACO           CLEAR     69  60  73 S14       29.58R
WACO-MCGREGOR  CLEAR     68  58  70 S17       29.59R
HILLSBORO      CLEAR     69  59  70 S16       29.58R
CORSICANA      CLEAR     70  56  61 S15       29.60R
MEXIA          CLEAR     69  55  61 SE14G22   29.60R
HEARNE         CLEAR     66  60  80 SE13      29.64R
CAMERON        CLEAR     69  61  76 S14G21    29.62R
TEMPLE         CLEAR     69  61  75 S21       29.60R
KILLEEN        CLEAR     70  57  63 S12       29.59R
KILLEEN-SKYLRK CLEAR     70  59  68 SE13      29.61R
FORT HOOD      CLEAR     69  58  68 S12       29.57R
GATESVILLE     CLEAR     70  57  64 S8        29.61R
HAMILTON       CLEAR     68  50  52 S10       29.60R
LAMPASAS       CLEAR     73  58  58 S6        29.60R
$$

TXZ095>097-106>112-122>126-135>138-148>153-164>167-240500-
EAST TEXAS

CITY           SKY/WX    TMP DP  RH WIND       PRES   REMARKS
PARIS          CLEAR     70  52  52 S14       29.55S
SULPHUR SPRNGS CLEAR     73  55  54 S13G20    29.58R
MOUNT PLEASANT CLEAR     71  55  56 S15       29.60R
GILMER         CLEAR     69  55  61 S12G22    29.61R
MINEOLA        CLEAR     72  57  60 S10G17    29.58R
TYLER          CLEAR     69  56  62 S16       29.60R
LONGVIEW       CLEAR     68  56  65 S12       29.63R
MARSHALL       CLEAR     66  55  66 S13       29.66R
ATHENS         CLEAR     68  55  64 S13G20    29.60R
PALESTINE      CLEAR     68  59  73 S7        29.64R
JACKSONVILLE   CLEAR     67  56  67 S14G22    29.66R
HENDERSON      CLEAR     67  54  63 S9        29.66R
CENTER         CLEAR     68  60  74 S13G21    29.68R
NACOGDOCHES    CLEAR     64  55  72 S13       29.66R
LUFKIN         CLEAR     63  59  87 S12       29.68R
$$

SUPPLEMENTAL OBSERVATIONS (CENTRAL)

CITY           SKY/WX    TMP DP  RH WIND       PRES   REMARKS
DENISON DAM      N/A     73  52  46 S13         N/A
CADDO GRASSLND   N/A     73  50  43 S16         N/A
PAT MAYSE LAKE   N/A     72  50  46 SE21        N/A
GREENVILLE       N/A     73  50  43 S13G23      N/A
CEDAR HILL       N/A     73  57  56 S14G25      N/A
ATHENS           N/A     70  57  64 S15G22      N/A
LAKE LIMESTONE   N/A     68  57  68 S9G17       N/A
MCGREGOR         N/A     68  57  68 S15         N/A
TEMPLE           N/A     68  61  77 S15         N/A
$$

SUPPLEMENTAL OBSERVATIONS (WEST)

CITY           SKY/WX    TMP DP  RH WIND       PRES   REMARKS
MILLERS CREEK    N/A     70  32  24 W14         N/A
POSSUM KINGDOM   N/A     73  32  21 SW7         N/A
LBJ GRASSLAND    N/A     73  50  43 S8          N/A
GRANBURY         N/A     73  54  49 S13         N/A
COMANCHE         N/A     72  43  35 SW12        N/A
HAMBY            N/A     64  32  29 W8          N/A
IVIE RESERVOIR   N/A     66  37  34 N3          N/A
COLORADO BEND    N/A     72  50  46 SW13        N/A
$$

SUPPLEMENTAL OBSERVATIONS (EAST)

CITY           SKY/WX    TMP DP  RH WIND       PRES   REMARKS
CLARKSVILLE      N/A     72  54  53 S16G22      N/A
TEXARKANA        N/A     70  54  56 S6          N/A
LINDEN           N/A     68  54  60 S6G15       N/A
CADDO LAKE       N/A     66  54  63 S3          N/A
GILMER           N/A     70  54  56 S12G20      N/A
HENDERSON        N/A     68  54  60 S9G17       N/A
LUFKIN           N/A     64  57  77 MISG        N/A
N SABINE NF      N/A     64  57  77 MISG        N/A
S SABINE NF      N/A     63  59  88 S3G13       N/A
$$

SUPPLEMENTAL OBSERVATIONS ARE A COLLECTION OF AUTOMATED INSTRUMENTS
THAT ARE MAINTAINED BY A VARIETY OF FEDERAL AND STATE AGENCIES.
CERTAIN ELEMENTS...SUCH AS HUMIDITY VALUES AND SUSTAINED WIND
SPEEDS...MAY BE APPROXIMATED.





USA.gov is the U.S. government's official web portal to all federal, state and local government web resources and services.